Location: Dvur Kralove nad Labem
(50.4330°N, 15.8170°E)
Time: 05:10:51
(UTC+02:00)

ISS - Visible Passes

Search period start: 16 July 2018 00:00
Search period end: 26 July 2018 00:00
Orbit: 402 x 408 km, 51.6° (Epoch: 16 July)

Date Brightness Start Highest point End Pass type
(mag) Time Alt. Az. Time Alt. Az. Time Alt. Az.
16 Jul -3.2 00:59:18 42° ESE 00:59:18 42° ESE 01:01:50 10° ENE visible
16 Jul -3.6 02:31:55 11° W 02:35:05 71° N 02:38:23 10° E visible
16 Jul -3.8 04:08:23 10° WNW 04:11:41 89° SSW 04:15:00 10° ESE visible
17 Jul -1.8 00:08:36 18° E 00:08:36 18° E 00:09:40 10° E visible
17 Jul -3.8 01:41:13 25° W 01:42:59 81° N 01:46:17 10° ENE visible
17 Jul -3.7 03:16:18 10° WNW 03:19:36 76° N 03:22:54 10° E visible
18 Jul -4.0 00:50:13 53° WSW 00:50:53 81° SSE 00:54:11 10° ENE visible
18 Jul -3.5 02:24:11 10° W 02:27:29 69° N 02:30:47 10° E visible
18 Jul -3.8 04:00:44 10° WNW 04:04:00 60° SSW 04:07:15 10° ESE visible
18 Jul -3.9 23:58:12 47° SSW 23:58:49 59° SSE 00:02:05 10° ENE visible
19 Jul -3.6 01:32:03 10° W 01:35:20 69° N 01:38:37 10° E visible
19 Jul -3.9 03:08:37 10° WNW 03:11:56 82° SSW 03:15:14 10° ESE visible
19 Jul -3.4 23:03:42 10° SW 23:06:48 40° SSE 23:09:55 10° E visible
20 Jul -3.7 00:39:54 10° W 00:43:11 77° N 00:46:30 10° ENE visible
20 Jul -3.8 02:16:30 10° WNW 02:19:48 81° N 02:23:07 10° E visible
20 Jul -3.2 03:53:06 10° W 03:56:09 35° SSW 03:59:12 10° SE visible
20 Jul -2.8 22:12:01 10° SSW 22:14:49 26° SE 22:17:38 10° E visible
20 Jul -3.9 23:47:46 10° WSW 23:51:03 88° SSE 23:54:21 10° ENE visible
21 Jul -3.6 01:24:22 10° W 01:27:39 71° N 01:30:57 10° E visible
21 Jul -3.7 03:00:54 10° WNW 03:04:08 52° SSW 03:07:21 10° SE visible
21 Jul -3.9 22:55:41 10° WSW 22:58:56 67° SSE 23:02:13 10° ENE visible
22 Jul -3.6 00:32:12 10° W 00:35:29 69° N 00:38:46 10° E visible
22 Jul -4.0 02:08:45 10° WNW 02:12:02 74° SSW 02:15:20 10° ESE visible
22 Jul -2.5 03:45:41 10° W 03:48:10 20° SW 03:50:38 10° SSE visible
22 Jul -3.6 22:03:42 10° SW 22:06:52 46° SSE 22:10:02 10° E visible
22 Jul -3.7 23:40:01 10° W 23:43:17 73° N 23:46:35 10° E visible
23 Jul -3.9 01:16:36 10° WNW 01:19:54 86° N 01:20:48 45° E visible
23 Jul -1.2 02:53:15 10° W 02:53:18 10° W 02:53:18 10° W visible
23 Jul -3.8 22:47:49 10° WSW 22:51:06 85° NNW 22:54:24 10° ENE visible
24 Jul -3.7 00:24:26 10° W 00:27:43 74° N 00:29:05 32° E visible
24 Jul -1.5 02:00:58 10° W 02:01:40 15° W 02:01:40 15° W visible
24 Jul -3.9 21:55:40 10° WSW 21:58:56 75° SSE 22:02:14 10° ENE visible
24 Jul -3.6 23:32:13 10° W 23:35:30 69° N 23:38:04 15° E visible
25 Jul -2.6 01:08:46 10° WNW 01:10:40 31° W 01:10:40 31° W visible
25 Jul -3.6 22:40:00 10° W 22:43:17 71° N 22:46:34 10° E visible
